Regional Weather Roundup
Issued by NWS Newport/Morehead, NC

Current Version | Previous Version | Graphics & Text | Print | Product List | Glossary Off
Versions: 1 2 3 4 5 6 7 8 9 10 11 12 13 14 15 16 17 18 19 20 21 22 23 24 25 26 27 28 29 30 31 32 33 34 35 36 37 38 39 40 41 42 43 44 45 46 47 48 49 50
000 ASUS42 KMHX 231025 RWRMHX WEATHER ROUNDUP FOR EASTERN NORTH CAROLINA NATIONAL WEATHER SERVICE NEWPORT/MOREHEAD CITY NC 500 AM EST MON JAN 23 2017 NOTE: "FAIR" INDICATES FEW OR NO CLOUDS BELOW 12,000 FEET WITH NO SIGNIFICANT WEATHER AND/OR OBSTRUCTIONS TO VISIBILITY NCZ015>017-031-032-045>047-102-103-231100- NORTH COAST CITY SKY/WX TMP DP RH WIND PRES REMARKS EDENTON LGT RAIN 52 50 94 E14G20 29.31F ELIZABETH CITY RAIN 51 51 100 E8 29.36F FOG KITTY HAWK NOT AVBL MANTEO LGT RAIN 55 55 100 E13 29.35F $$ NCZ045>047-081-094-103-104-231100- CENTRAL COAST CITY SKY/WX TMP DP RH WIND PRES REMARKS FRISCO CLOUDY 65 62 90 SE12G25 29.27F FOG $$ NCZ095-097-098-100-101-231100- SOUTHERN COAST CITY SKY/WX TMP DP RH WIND PRES REMARKS BEAUFORT CLOUDY 64 61 90 S12 29.26F CEDAR ISLAND NOT AVBL JACKSONVILLE MOCLDY 59 59 100 S5 29.24R PINEY ISLAND CLOUDY N/A N/A N/A NE6 29.26F WILMINGTON PTCLDY 60 58 92 SW14 29.25R $$ NCZ011>013-027>030-043-044-078>080-089-090>093-098-231100- COASTAL PLAIN CITY SKY/WX TMP DP RH WIND PRES REMARKS AHOSKIE N/A 50 49 97 NE10 29.28F CLINTON MOCLDY 61 61 100 S6 29.23R ELIZABETHTOWN PTCLDY 59 55 87 SW12G21 29.25R GOLDSBORO CLOUDY 55 55 100 E12 29.22R GREENVILLE CLOUDY 54 54 100 E10 29.30R HAVELOCK CLOUDY 56 56 100 CALM 29.27F KENANSVILLE CLOUDY 57 57 100 SE6 29.23S KINSTON CLOUDY 55 55 100 E9 29.25S NEW BERN CLOUDY 55 54 96 VRB3 29.25F RICHLANDS CLOUDY 56 55 97 E3 29.25R ROCKY MOUNT CLOUDY 53 53 100 E9G17 29.24S WASHINGTON CLOUDY 52 51 97 E15G24 N/A WHITEVILLE PTCLDY 56 50 79 SW10G17 29.26R $$ AMZ130-135-150-152-154-156-158-170-250-252-270-ANZ085-086-088-633-658-670-231100- MARINE OBSERVATIONS STATION/POSITION TIME TEMP WIND PRES WAVE SWELL AIR SEA DIR/SP/G HT/PER HT/PER (UTC) (F) (DEG/KT/KT) (MB) (FT/S) (FT/S) CHESAPEAKE LIGHT NOT AVBL 64 E VA BEACH 0950 60 56 80/ 14/ 16 995.0 4/12 3/12 DUCK 1000 52 46 70/ 23/ 25 992.5 2 E DUCK 1000 46 N/A 3/11 2/11 OREGON INLET 1000 51 80/ 10/ 12 992.4 13E OREGON INLT NOT AVBL HATTERAS CG 1000 62 55 120/ 9/ 15 991.1 DIAMOND BUOY 0950 72 72 150/ 23/ 27 991.6 7/ 5 3/11 CAPE LOOKOUT 1000 66 210/ 11/ 14 990.2 BEAUFORT LAB 1000 62 51 210/ 10/ 12 989.6 30 SE NEW RVR IN 1008 65 70 240/ 25/ 31 991.0 30 SE NEW RVR IN 1013 70 N/A 10/ 8 2/14 27 SE WRIGHTSVLE 1008 63 67 220/ 23/ 31 989.4 5 SE WRIGHTSVLE 1008 57 230/ 17/ 25 990.5 225 S CAPE HAT 0950 67 71 240/ 29/ 39 997.5 14/ 9 11/ 9 41 SE CHARLESTON 0950 63 66 250/ 17/ 21 992.6 10/ 8 8/ 8 $$

USA.gov is the U.S. government's official web portal to all federal, state and local government web resources and services.